Weather History for KUKI - May, 2012

Change the Weather History Date:

Wednesday, May 30, 2012

  Actual Average Record
Temperature  
Mean Temperature 70 °F 64 °F  
Max Temperature 91 °F 79 °F 104 °F (1910)
Min Temperature 48 °F 49 °F 34 °F (1977)
Degree Days  
Heating Degree Days 0 3  
Month to date heating degree days 95 138  
Since 1 July heating degree days 3125 3084  
Cooling Degree Days 5 2  
Month to date cooling degree days 38 46  
Year to date cooling degree days 52 54  
Growing Degree Days 19 (Base 50)    
Moisture  
Dew Point 45 °F    
Average Humidity 54    
Maximum Humidity 93    
Minimum Humidity 15    
Precipitation  
Precipitation 0.00 in 0.02 in 0.56 in (1990)
Month to date precipitation 0.23 1.39  
Year to date precipitation 18.87 23.01  
Since 1 July precipitation 25.59  
Snow  
Snow 0.00 in - - ()
Month to date snowfall 0.0  
Since 1 July snowfall 0.0  
Snow Depth 0.00 in    
Sea Level Pressure  
Sea Level Pressure 30.03 in    
Wind  
Wind Speed 3 mph (NNW)    
Max Wind Speed 14 mph    
Max Gust Speed 18 mph    
Visibility 10 miles    
Events      
T = Trace of Precipitation, MM = Missing Value Source: NWS Daily Summary

Daily Weather History Graph

Daily Weather History Graph

Search for Another Location

Airport or City:

Trip Planner

Search our weather history database for the weather conditions in past years. The results will help you decide how hot, cold, wet, or windy it might be!

Date:

Astronomy

May. 30, 2012 Rise Set
Actual Time 5:49 AM PDT 8:32 PM PDT
Civil Twilight 5:17 AM PDT 9:03 PM PDT
Nautical Twilight 4:38 AM PDT 9:42 PM PDT
Astronomical Twilight 3:54 AM PDT 10:27 PM PDT
Moon 3:19 PM PDT (5/30) 2:14 AM PDT (5/30)
Length of Visible Light 15h 45m
Length of Day
14h 42m
Waxing Gibbous, 71% of the Moon is Illuminated
May 30
Waxing Gibbous
Jun 4
Full
Jun 11
Last Quarter
Jun 19
New
Jun 26
First Quarter

Hourly Weather History & Observations

Time (PDT) Temp. Dew Point Humidity Pressure Visibility Wind Dir Wind Speed Gust Speed Precip Events Conditions
12:56 AM 54.0 °F 46.0 °F 75% 30.04 in 10.0 mi Calm Calm - N/A   Clear
1:56 AM 53.1 °F 46.9 °F 80% 30.04 in 10.0 mi Calm Calm - N/A   Clear
2:56 AM 52.0 °F 46.0 °F 80% 30.04 in 10.0 mi Calm Calm - N/A   Clear
3:56 AM 48.2 °F 46.4 °F 93% 30.06 in 10.0 mi Calm Calm - N/A   Clear
4:56 AM 51.1 °F 45.0 °F 80% 30.05 in 10.0 mi Calm Calm - N/A   Clear
5:56 AM 50.0 °F 46.0 °F 86% 30.06 in 10.0 mi Calm Calm - N/A   Clear
6:56 AM 51.1 °F 46.0 °F 83% 30.07 in 10.0 mi Calm Calm - N/A   Clear
7:56 AM 55.9 °F 46.9 °F 72% 30.08 in 10.0 mi Calm Calm - N/A   Clear
8:56 AM 63.0 °F 48.9 °F 60% 30.08 in 10.0 mi Calm Calm - N/A   Clear
9:56 AM 69.1 °F 48.9 °F 49% 30.08 in 10.0 mi Calm Calm - N/A   Clear
10:56 AM 73.9 °F 50.0 °F 43% 30.06 in 10.0 mi Calm Calm - N/A   Clear
11:56 AM 80.1 °F 48.9 °F 34% 30.05 in 10.0 mi Calm Calm - N/A   Clear
12:56 PM 84.0 °F 48.9 °F 29% 30.03 in 10.0 mi Calm Calm - N/A   Clear
1:56 PM 88.0 °F 46.9 °F 24% 30.01 in 10.0 mi NNE 4.6 mph - N/A   Clear
2:56 PM 90.0 °F 45.0 °F 21% 30.00 in 10.0 mi NW 10.4 mph - N/A   Clear
3:56 PM 90.0 °F 46.0 °F 22% 29.99 in 10.0 mi WNW 8.1 mph - N/A   Clear
4:56 PM 87.1 °F 43.0 °F 21% 29.99 in 10.0 mi NW 8.1 mph - N/A   Clear
5:56 PM 86.0 °F 39.9 °F 20% 29.99 in 10.0 mi NW 9.2 mph - N/A   Clear
6:56 PM 82.9 °F 30.0 °F 15% 29.99 in 10.0 mi North 9.2 mph - N/A   Clear
7:56 PM 77.0 °F 43.0 °F 30% 30.00 in 10.0 mi NNE 8.1 mph - N/A   Clear
8:56 PM 73.9 °F 43.0 °F 33% 30.01 in 10.0 mi NNE 5.8 mph - N/A   Clear
9:56 PM 66.9 °F 45.0 °F 45% 30.03 in 10.0 mi Calm Calm - N/A   Clear
10:56 PM 66.0 °F 46.0 °F 48% 30.02 in 10.0 mi Calm Calm - N/A   Clear
11:56 PM 63.0 °F 46.9 °F 56% 30.02 in 10.0 mi Calm Calm - N/A   Clear